Location: DARK SKY Beskydy - Park tmavé oblohy, www.darkskybeskydy.cz
(49.4926°N, 18.5016°E)
Time: 17:19:30
(UTC+02:00)

AO-27 - Visible Passes

Search period start: 27 March 2023 00:00
Search period end: 06 April 2023 00:00
Orbit: 785 x 796 km, 98.9° (Epoch: 27 March)

Date Brightness Start Highest point End Pass type
(mag) Time Alt. Az. Time Alt. Az. Time Alt. Az.
27 Mar 8.8 20:51:45 10° S 20:56:42 44° W 21:01:43 10° NNW visible
28 Mar 7.8 20:22:06 10° S 20:27:18 77° WSW 20:32:33 10° NNW visible
28 Mar 10.5 22:05:47 10° WSW 22:07:39 12° W 22:09:33 10° WNW visible
29 Mar 7.7 19:52:53 10° SSE 19:58:01 64° ENE 20:03:12 10° N visible
29 Mar 10.0 21:34:02 10° SW 21:37:56 21° W 21:41:51 10° NW visible
30 Mar 9.1 21:03:34 10° SSW 21:08:20 36° W 21:13:09 10° NNW visible
31 Mar 8.2 20:33:43 10° S 20:38:53 62° WSW 20:44:05 10° NNW visible
01 Apr 7.7 20:04:21 10° SSE 20:09:32 78° ENE 20:14:48 10° NNW visible
01 Apr 10.2 21:46:16 10° SW 21:49:37 17° W 21:53:00 10° NW visible
02 Apr 9.5 21:15:28 10° SSW 21:19:58 29° W 21:24:32 10° NW visible
03 Apr 8.5 20:45:25 10° S 20:50:28 50° W 20:55:35 10° NNW visible
04 Apr 7.7 20:15:52 10° SSE 20:21:05 87° WSW 20:26:22 10° NNW visible
04 Apr 10.4 21:58:43 10° WSW 22:01:19 14° W 22:03:57 10° WNW visible
05 Apr 9.8 21:27:28 10° SW 21:31:38 24° W 21:35:51 10° NW visible
